This is the latest recevied weather packets stored in our database for station/object KC3BHK-2. If no packets are shown the sender has not sent any weather packets the latest 10 day(s).
| Time | Temp. | Humidity | Pressure | Rain* | Wind** | Luminosity | Snow |
|---|---|---|---|---|---|---|---|
| 1778172497 | 18.89° C | - | - | 0 mm | 0.45 m/s, 345° | - | - |
| 1778172193 | 18.89° C | - | - | 0 mm | 0.45 m/s, 89° | - | - |
| 1778171582 | 19.44° C | - | - | 0 mm | 2.68 m/s, 263° | - | - |
| 1778171277 | 18.33° C | - | - | 0 mm | 2.24 m/s, 10° | - | - |
| 1778170973 | 18.89° C | - | - | 0 mm | 4.47 m/s, 284° | - | - |
| 1778170665 | 20° C | - | - | 0 mm | 4.47 m/s, 290° | - | - |
| 1778170360 | 18.89° C | - | - | 0 mm | 4.02 m/s, 280° | - | - |
| 1778170056 | 20.56° C | - | - | 0 mm | 3.13 m/s, 283° | - | - |
| 1778169751 | 20° C | - | - | 0 mm | 2.68 m/s, 290° | - | - |
| 1778169142 | 20° C | - | - | 0 mm | 0 m/s | - | - |
| 1778168833 | 18.89° C | - | - | 0 mm | 1.34 m/s, 39° | - | - |
| 1778168528 | 18.89° C | - | - | 0 mm | 2.68 m/s, 280° | - | - |
| 1778168224 | 18.89° C | - | - | 0 mm | 0.89 m/s, 290° | - | - |
| 1778167919 | 20° C | - | - | 0 mm | 0.45 m/s, 1° | - | - |
| 1778167613 | 18.89° C | - | - | 0 mm | 0.89 m/s, 359° | - | - |
| 1778167309 | 17.78° C | - | - | 0 mm | 2.24 m/s, 285° | - | - |
| 1778167001 | 18.33° C | - | - | 0 mm | 4.02 m/s, 267° | - | - |
| 1778166696 | 18.33° C | - | - | 0 mm | 1.34 m/s, 321° | - | - |
| 1778166391 | 17.78° C | - | - | 0 mm | 2.24 m/s, 315° | - | - |
| 1778166087 | 18.33° C | - | - | 0 mm | 1.79 m/s, 339° | - | - |
| 1778165782 | 17.78° C | - | - | 0 mm | 1.34 m/s, 18° | - | - |
| 1778165477 | 17.78° C | - | - | 0 mm | 0.45 m/s, 288° | - | - |
| 1778165169 | 16.11° C | - | - | 0 mm | 0.89 m/s, 212° | - | - |
| 1778164865 | 16.67° C | - | - | 0 mm | 1.34 m/s, 274° | - | - |
| 1778164560 | 16.67° C | - | - | 0 mm | 0.45 m/s, 28° | - | - |
* Rain latest hour (hover to see other rain measurements)
** Current wind speed in m/s (hover to see current wind gust speed)